Weather History for Whitefield, NH

Change the Weather History Date:

Friday, February 8, 2013

  Actual Average Record
Temperature  
Mean Temperature 16 °F -  
Max Temperature 21 °F 26 °F 45 °F (2009)
Min Temperature 12 °F 0 °F -23 °F (2000)
Degree Days  
Heating Degree Days 48    
Moisture  
Dew Point 10 °F    
Average Humidity 74    
Maximum Humidity 86    
Minimum Humidity 45    
Precipitation  
Precipitation 0.01 in - - ()
Sea Level Pressure  
Sea Level Pressure 30.14 in    
Wind  
Wind Speed 9 mph (East)    
Max Wind Speed 24 mph    
Max Gust Speed 34 mph    
Visibility 3 miles    
Events Snow    
Averages and records for this station are not official NWS values.
T = Trace of Precipitation, MM = Missing Value Source: NWS Daily Summary

Daily Weather History Graph

Daily Weather History Graph

Search for Another Location

Airport:

Trip Planner

Search our weather history database for the weather conditions in past years. The results will help you decide how hot, cold, wet, or windy it might be!

Date:

Astronomy

Feb. 08, 2013 Rise Set
Actual Time 6:55 AM EST 5:05 PM EST
Civil Twilight 6:25 AM EST 5:36 PM EST
Nautical Twilight 5:50 AM EST 6:10 PM EST
Astronomical Twilight 5:17 AM EST 6:44 PM EST
Moon 5:23 AM EST (2/8) 3:34 PM EST (2/8)
Length of Visible Light 11h 10m
Length of Day
10h 10m
Waning Crescent, 3% of the Moon is Illuminated
Feb 8
Waning Crescent
Feb 10
New
Feb 17
First Quarter
Feb 25
Full
Mar 4
Last Quarter

Hourly Weather History & Observations

Time (EST) Temp. Windchill Dew Point Humidity Pressure Visibility Wind Dir Wind Speed Gust Speed Precip Events Conditions
12:52 AM 12.9 °F 6.9 °F -5.1 °F 45% 30.46 in 10.0 mi NE 3.5 mph - N/A   Overcast
1:52 AM 12.9 °F - -2.9 °F 49% 30.45 in 10.0 mi Calm Calm - N/A   Overcast
2:52 AM 14.0 °F 8.2 °F -0.0 °F 54% 30.43 in 10.0 mi NW 3.5 mph - N/A   Overcast
3:52 AM 15.1 °F - 1.9 °F 56% 30.40 in 10.0 mi Calm Calm - N/A   Overcast
4:52 AM 14.0 °F 1.2 °F 6.1 °F 71% 30.38 in 5.0 mi ENE 10.4 mph - 0.00 in Snow Light Snow
5:14 AM 12.2 °F -1.8 °F 6.8 °F 79% 30.30 in 2.5 mi ENE 11.5 mph - 0.00 in Snow Light Snow
5:48 AM 12.2 °F -1.8 °F 6.8 °F 79% 30.29 in 3.0 mi East 11.5 mph - 0.00 in Snow Light Snow
5:52 AM 12.9 °F -0.9 °F 7.0 °F 77% 30.37 in 3.0 mi ENE 11.5 mph - 0.00 in Snow Light Snow
6:29 AM 12.2 °F -0.2 °F 6.8 °F 79% 30.28 in 5.0 mi East 9.2 mph 17.3 mph 0.00 in Snow Light Snow
6:52 AM 12.9 °F 2.6 °F 6.1 °F 74% 30.36 in 9.0 mi Variable 6.9 mph - 0.00 in Snow Light Snow
7:52 AM 14.0 °F 6.5 °F 8.1 °F 77% 30.36 in 4.0 mi Variable 4.6 mph - 0.00 in Snow Light Snow
8:52 AM 17.1 °F 3.6 °F 9.0 °F 71% 30.34 in 7.0 mi ENE 12.7 mph 16.1 mph 0.00 in Snow Light Snow
9:52 AM 18.0 °F 4.8 °F 10.9 °F 74% 30.31 in 3.0 mi East 12.7 mph - 0.00 in Snow Light Snow
10:52 AM 19.0 °F 9.0 °F 12.0 °F 74% 30.30 in 2.0 mi East 8.1 mph 17.3 mph 0.00 in Snow Light Snow
11:12 AM 19.4 °F 8.6 °F 12.2 °F 74% 30.22 in 3.0 mi East 9.2 mph - 0.00 in Snow Light Snow
11:49 AM 19.4 °F 7.2 °F 12.2 °F 74% 30.20 in 3.0 mi East 11.5 mph - 0.00 in Snow Light Snow
11:52 AM 19.9 °F 9.3 °F 12.9 °F 74% 30.27 in 2.5 mi East 9.2 mph - 0.00 in Snow Light Snow
12:35 PM 19.4 °F 6.6 °F 14.0 °F 80% 30.18 in 3.0 mi East 12.7 mph 16.1 mph 0.00 in Snow Light Snow
12:44 PM 19.4 °F 9.5 °F 14.0 °F 80% 30.17 in 2.5 mi East 8.1 mph - 0.00 in Snow Light Snow
12:52 PM 19.9 °F 9.3 °F 14.0 °F 78% 30.24 in 2.0 mi East 9.2 mph - 0.00 in Snow Light Snow
12:59 PM 19.4 °F 8.6 °F 15.8 °F 86% 30.16 in 1.5 mi East 9.2 mph - 0.00 in Snow Light Snow
1:52 PM 19.9 °F 8.6 °F 15.1 °F 81% 30.19 in 1.5 mi East 10.4 mph - 0.00 in Snow Light Snow
2:46 PM 21.2 °F 12.6 °F 15.8 °F 80% 30.09 in 2.0 mi East 6.9 mph - 0.00 in Snow Light Snow
2:52 PM 21.0 °F 11.4 °F 15.1 °F 78% 30.15 in 3.0 mi East 8.1 mph - 0.00 in Snow Light Snow
3:13 PM 21.2 °F 8.9 °F 14.0 °F 74% 30.08 in 2.5 mi East 12.7 mph - 0.00 in Snow Light Snow
3:52 PM 21.0 °F 8.6 °F 14.0 °F 74% 30.13 in 2.5 mi East 12.7 mph - 0.00 in Snow Light Snow
4:04 PM 21.2 °F 9.5 °F 14.0 °F 74% 30.06 in 2.0 mi East 11.5 mph - 0.00 in Snow Light Snow
4:13 PM 21.2 °F 9.5 °F 14.0 °F 74% 30.06 in 1.5 mi ENE 11.5 mph - 0.00 in Snow Light Snow
4:31 PM 19.4 °F 6.6 °F 15.8 °F 86% 30.05 in 0.8 mi ENE 12.7 mph - 0.00 in Snow Light Snow
4:38 PM 19.4 °F 7.2 °F 14.0 °F 80% 30.05 in 0.8 mi East 11.5 mph - 0.00 in Snow Light Snow
4:50 PM 19.4 °F 6.6 °F 14.0 °F 80% 30.04 in 1.0 mi East 12.7 mph - 0.01 in Snow Light Snow
4:52 PM 19.0 °F 6.8 °F 14.0 °F 81% 30.11 in 1.0 mi East 11.5 mph - 0.01 in Snow Light Snow
5:04 PM 19.4 °F 7.9 °F 12.2 °F 74% 30.03 in 1.5 mi East 10.4 mph - 0.00 in Snow Light Snow
5:19 PM 19.4 °F 6.6 °F 12.2 °F 74% 30.04 in 2.0 mi East 12.7 mph - 0.00 in Snow Light Snow
5:48 PM 17.6 °F 5.7 °F 10.4 °F 73% 30.04 in 3.0 mi East 10.4 mph 19.6 mph 0.00 in Snow Light Snow
5:52 PM 18.0 °F 5.4 °F 10.9 °F 74% 30.10 in 4.0 mi East 11.5 mph 19.6 mph 0.00 in Snow Light Snow
6:26 PM 17.6 °F 3.2 °F 10.4 °F 73% 30.03 in 2.5 mi East 15.0 mph 24.2 mph 0.00 in Snow Light Snow
6:41 PM 17.6 °F 3.7 °F 8.6 °F 68% 30.03 in 4.0 mi East 13.8 mph 23.0 mph 0.00 in Snow Light Snow
6:52 PM 17.1 °F 1.5 °F 9.0 °F 71% 30.09 in 5.0 mi ESE 17.3 mph 27.6 mph 0.00 in Snow Light Snow
7:08 PM 15.8 °F -0.6 °F 8.6 °F 73% 30.02 in 5.0 mi ESE 18.4 mph 31.1 mph 0.00 in Snow Light Snow
7:52 PM 15.1 °F -0.6 °F 7.0 °F 70% 30.07 in 4.0 mi East 16.1 mph 29.9 mph 0.00 in Snow Light Snow
8:50 PM 14.0 °F -0.8 °F 6.8 °F 73% 29.96 in 4.0 mi East 13.8 mph 28.8 mph 0.00 in Snow Light Snow
8:52 PM 14.0 °F -2.0 °F 6.1 °F 71% 30.02 in 5.0 mi East 16.1 mph 28.8 mph 0.00 in Snow Light Snow
9:18 PM 15.8 °F -1.9 °F 6.8 °F 68% 29.94 in 2.5 mi East 21.9 mph 34.5 mph 0.00 in Snow Light Snow
9:47 PM 15.8 °F -2.3 °F 8.6 °F 73% 29.92 in 1.5 mi ENE 23.0 mph 34.5 mph 0.00 in Snow Light Snow
9:52 PM 15.1 °F -3.3 °F 8.1 °F 74% 29.98 in 1.8 mi ENE 23.0 mph 32.2 mph 0.00 in Snow Light Snow
10:24 PM 15.8 °F -1.5 °F 8.6 °F 73% 29.90 in 1.2 mi ENE 20.7 mph 31.1 mph 0.00 in Snow Light Snow
10:52 PM 14.0 °F -2.5 °F 8.1 °F 77% 29.95 in 1.8 mi East 17.3 mph 25.3 mph 0.00 in Snow Light Snow
11:30 PM 14.0 °F -5.1 °F 8.6 °F 79% 29.86 in 1.2 mi East 24.2 mph 31.1 mph 0.00 in Snow Light Snow
11:41 PM 14.0 °F -3.0 °F 8.6 °F 79% 29.86 in 1.2 mi East 18.4 mph 31.1 mph 0.00 in Snow Light Snow
11:52 PM 14.0 °F -3.9 °F 8.1 °F 77% 29.92 in 1.2 mi East 20.7 mph 32.2 mph 0.00 in Snow Light Snow